Location: Rathdrum
(47.8130°N, 116.8960°W)
Time: 04:12:37
(UTC-07:00)

Amateur Radio Satellites - All Passes

Search period start: 24 May 2015 03:42
Search period end: 25 May 2015 03:42
Location: Rathdrum, 47.8130°N, 116.8960°W

Satellite Date Start Highest point End Downlink Frequencies (MHz)
Time Altitude Azimuth
HORYU 2 24 May 03:50:11 03:53:48 24° 93° (E) 03:57:28 437.375
Cosmos 2499 24 May 03:52:39 03:59:05 37° 272° (W) 04:05:22 435.465 / 435.565
PCSat 24 May 03:56:54 04:01:22 25° 324° (NW) 04:05:47 145.827
BEESAT 2 24 May 03:56:57 04:01:01 57° 237° (WSW) 04:05:00 435.950
AO-7 24 May 04:14:31 04:22:08 38° 96° (E) 04:29:50 29.400- 29.500
MOZHAYETS 4 24 May 04:14:57 04:19:30 64° 72° (ENE) 04:24:02
STARS 24 May 04:24:20 04:27:13 16° 271° (W) 04:29:58 437.465
Oscar 19 24 May 04:33:40 04:35:41 12° 306° (NW) 04:37:27 437.125/150
ITAMSAT 1 24 May 04:38:29 04:42:56 28° 297° (WNW) 04:47:17 435.822/435.867
BEESAT 3 24 May 04:51:48 04:54:16 15° 248° (WSW) 04:56:35 437.485
PHONESAT 2.4 24 May 04:55:38 04:57:31 14° 160° (SSE) 04:59:28 2401.200-2431.200
Gurwin Techsat 1B 24 May 04:57:31 05:01:36 22° 300° (WNW) 05:05:33 435.225
JAS-2 24 May 04:59:15 05:04:31 90° 344° (NNW) 05:09:46 435.910
AIST 2 24 May 05:03:56 05:07:57 42° 240° (WSW) 05:11:53 435.215
VERMONT LUNAR 24 May 05:04:52 05:07:21 21° 174° (S) 05:09:51 437.305
ISS 24 May 05:11:47 05:15:00 51° 14° (NNE) 05:18:12 145.825
SO-50 24 May 05:19:52 05:24:31 52° 315° (NW) 05:29:20 436.795
PRISM 24 May 05:20:59 05:23:06 14° 60° (ENE) 05:25:21 437.425
HORYU 2 24 May 05:26:26 05:30:36 39° 292° (WNW) 05:34:42 437.375
CUBESAT XI-V 24 May 05:44:44 05:49:08 47° 70° (ENE) 05:53:35 437.345
PCSat 24 May 05:45:37 05:46:51 11° 349° (NNW) 05:48:00 145.827
STRAND 1 24 May 05:46:07 05:50:17 27° 63° (ENE) 05:54:35 437.568
M-CUBED/EXP-1 PRIME 24 May 05:48:56 05:52:16 24° 61° (ENE) 05:55:28 437.505
MOZHAYETS 4 24 May 05:54:19 05:57:13 16° 272° (W) 05:59:57
Cosmos 2491 24 May 05:55:08 06:03:17 40° 66° (ENE) 06:11:27 435.465 / 435.565
AUBIESAT-1 24 May 06:00:03 06:03:31 27° 62° (ENE) 06:06:49 437.475
AO-7 24 May 06:07:10 06:15:21 59° 297° (WNW) 06:23:27 29.400- 29.500
CUTE-I 24 May 06:27:03 06:31:41 29° 94° (E) 06:36:22 437.470
PHONESAT 2.4 24 May 06:32:09 06:34:59 24° 176° (S) 06:37:51 2401.200-2431.200
VERMONT LUNAR 24 May 06:41:38 06:44:00 19° 190° (S) 06:46:21 437.305
JAS-2 24 May 06:46:04 06:48:59 15° 305° (NW) 06:51:42 435.910
Cubesat XI-IV 24 May 06:46:24 06:51:30 43° 98° (E) 06:56:36 437.490
ISS 24 May 06:48:16 06:51:25 45° 212° (SSW) 06:54:33 145.825
YUBILEINY 24 May 06:53:16 07:00:31 32° 83° (E) 07:07:57 435.215
AIST 1 24 May 06:53:24 06:55:55 15° 64° (ENE) 06:58:36
PRISM 24 May 06:54:01 06:58:05 69° 257° (WSW) 07:02:11 437.425
SO-50 24 May 07:03:03 07:06:12 17° 338° (NNW) 07:09:19 436.795
M-CUBED/EXP-1 PRIME 24 May 07:22:58 07:27:00 39° 256° (WSW) 07:30:44 437.505
CUBESAT XI-V 24 May 07:23:16 07:26:51 22° 269° (W) 07:30:23 437.345
STRAND 1 24 May 07:24:22 07:29:18 47° 261° (W) 07:34:14 437.568
RS-15 24 May 07:27:16 07:29:48 11° 94° (E) 07:33:22 29.354- 29.394
PCSat 24 May 07:31:05 07:32:51 11° 15° (NNE) 07:34:42 145.827
AUBIESAT-1 24 May 07:34:21 07:38:13 33° 257° (WSW) 07:41:49 437.475
Cosmos 2491 24 May 07:51:59 08:00:34 56° 269° (W) 08:09:01 435.465 / 435.565
AO-7 24 May 08:01:21 08:06:35 18° 319° (NW) 08:11:33 29.400- 29.500
DOVE 4 24 May 08:04:05 08:05:31 11° 81° (E) 08:07:15 437.250
BRITE-PL 24 May 08:05:12 08:10:05 29° 91° (E) 08:14:55 437.365/2234.400
CUTE-I 24 May 08:06:52 08:11:57 45° 292° (WNW) 08:17:01 437.470
HO-68 24 May 08:08:06 08:12:30 18° 85° (E) 08:17:14 435.675
PHONESAT 2.4 24 May 08:09:57 08:12:32 19° 193° (SSW) 08:15:06 2401.200-2431.200
CANX-2 24 May 08:15:22 08:16:45 12° 86° (E) 08:18:22 2200.000
CUTE 1.7 + AOD 2 24 May 08:19:25 08:20:48 12° 86° (E) 08:22:24 437.475
GOMX 1 24 May 08:23:50 08:28:22 27° 90° (E) 08:32:51 467.674
Cubesat XI-IV 24 May 08:26:46 08:31:30 32° 296° (WNW) 08:36:10 437.490
AIST 1 24 May 08:29:44 08:34:05 63° 264° (W) 08:38:24
SEEDS 24 May 08:45:44 08:48:36 18° 90° (E) 08:51:34 437.485
SO-50 24 May 08:47:17 08:48:44 11° 2° (N) 08:50:13 436.795
YUBILEINY 24 May 08:48:04 08:56:48 67° 284° (WNW) 09:05:32 435.215
COMPASS 1 24 May 09:03:39 09:06:55 22° 92° (E) 09:10:14 437.405
PCSat 24 May 09:13:28 09:18:10 29° 40° (NE) 09:22:54 145.827
ANTELSAT 24 May 09:14:56 09:18:17 20° 63° (ENE) 09:21:44 437.575/2403.000
CUBEBUG 2 24 May 09:16:38 09:18:33 13° 85° (E) 09:20:40 437.445
AAUSAT CUBESAT 2 24 May 09:18:16 09:21:48 27° 94° (E) 09:25:21 437.432
RS-15 24 May 09:29:19 09:39:42 55° 116° (ESE) 09:50:29 29.354- 29.394
ZACube-1 24 May 09:32:11 09:33:27 11° 84° (E) 09:34:56 437.345
DOVE 4 24 May 09:39:02 09:44:20 79° 103° (ESE) 09:49:20 437.250
CINEMA 3 24 May 09:39:38 09:44:13 41° 96° (E) 09:48:37 145.822/145.860
BRITE-PL 24 May 09:43:19 09:48:50 50° 291° (WNW) 09:54:11 437.365/2234.400
NANOSAT C BR1 24 May 09:43:55 09:46:37 17° 62° (ENE) 09:49:28 145.865
TIGRISAT 24 May 09:48:04 09:52:22 37° 69° (ENE) 09:56:41 435.000
CANX-2 24 May 09:49:05 09:53:19 76° 285° (WNW) 09:57:31 2200.000
QB50P2 24 May 09:49:16 09:52:18 20° 63° (ENE) 09:55:28 145.880/145.840
Oscar 11 24 May 09:49:49 09:53:33 28° 94° (E) 09:57:18 145.826/435.025
Cosmos 2491 24 May 09:52:53 09:55:32 11° 290° (WNW) 09:57:32 435.465 / 435.565
CUTE 1.7 + AOD 2 24 May 09:53:07 09:57:21 76° 285° (WNW) 10:01:33 437.475
HO-68 24 May 09:54:13 10:01:27 85° 108° (ESE) 10:08:36 435.675
GOMX 1 24 May 10:01:28 10:06:47 50° 290° (WNW) 10:11:51 467.674
POPSAT HIP 1 24 May 10:01:49 10:05:17 25° 65° (ENE) 10:08:50 437.405
Cosmos 2504 24 May 10:01:54 10:09:46 48° 90° (E) 10:17:12 435.465 / 435.565
DELFI C3 24 May 10:05:44 10:09:16 29° 95° (E) 10:12:50 145.870
DUCHIFAT 1 24 May 10:06:11 10:09:43 26° 66° (ENE) 10:13:20 145.980
UNISAT 6 24 May 10:06:49 10:11:25 57° 72° (ENE) 10:16:01 437.425
UWE-3 24 May 10:08:54 10:12:56 33° 95° (E) 10:16:53 435.000/436.395/437.385
SEEDS 24 May 10:20:39 10:24:42 47° 289° (WNW) 10:28:42 437.485
FUNcube-1 24 May 10:27:01 10:31:08 39° 97° (E) 10:35:09 145.935
SO-50 24 May 10:27:44 10:31:12 19° 26° (NNE) 10:34:45 436.795
COMPASS 1 24 May 10:38:53 10:42:45 37° 290° (WNW) 10:46:34 437.405
BUGSAT 1 24 May 10:42:22 10:46:15 41° 70° (ENE) 10:50:15 437.445
QB50P1 24 May 10:45:18 10:49:32 65° 73° (ENE) 10:53:50 145.935-145.965
POLYITAN 1 24 May 10:45:34 10:49:51 66° 73° (ENE) 10:54:10 437.675
ANTELSAT 24 May 10:50:04 10:54:43 58° 260° (W) 10:59:20 437.575/2403.000
YUBILEINY 24 May 10:50:15 10:55:49 17° 310° (NW) 11:00:59 435.215
CUBEBUG 2 24 May 10:51:22 10:55:58 77° 284° (WNW) 11:00:20 437.445
AAUSAT CUBESAT 2 24 May 10:53:45 10:57:26 31° 292° (WNW) 11:01:03 437.432
PCSat 24 May 10:56:38 11:02:01 63° 241° (WSW) 11:07:21 145.827
ZACube-1 24 May 11:06:07 11:10:33 82° 287° (WNW) 11:14:50 437.345
ESTCUBE 1 24 May 11:12:53 11:16:09 20° 90° (E) 11:19:31 437.505/2401.250
UKube-1 24 May 11:14:09 11:18:27 55° 101° (E) 11:22:43 .
CINEMA 3 24 May 11:17:07 11:21:14 27° 296° (WNW) 11:25:08 145.822/145.860
NANOSAT C BR1 24 May 11:17:50 11:22:04 60° 259° (W) 11:26:20 145.865
DOVE 4 24 May 11:17:55 11:21:27 18° 301° (WNW) 11:24:45 437.250
DX 1 24 May 11:18:26 11:22:50 65° 102° (ESE) 11:27:13 434.975-435.025
VELOX 1 24 May 11:21:09 11:25:19 36° 97° (E) 11:29:29 145.980
QB50P2 24 May 11:23:42 11:27:53 50° 261° (W) 11:32:07 145.880/145.840
HUMSAT D 24 May 11:24:28 11:28:42 75° 102° (ESE) 11:32:49 437.325/437.525
TIGRISAT 24 May 11:25:06 11:29:12 29° 266° (W) 11:33:14 435.000
BRITE-PL 24 May 11:25:15 11:26:10 10° 309° (NW) 11:26:47 437.365/2234.400
Oscar 11 24 May 11:25:53 11:29:45 32° 292° (WNW) 11:33:33 145.826/435.025
50 SAT 24 May 11:26:50 11:30:37 45° 99° (E) 11:34:21 437.505
GONETS M04 24 May 11:28:13 11:29:45 11° 69° (ENE) 11:31:57
CUBEBUG 1 24 May 11:28:16 11:31:51 24° 92° (E) 11:35:31 437.445
POPSAT HIP 1 24 May 11:36:59 11:41:00 38° 263° (W) 11:45:03 437.405
DELFI C3 24 May 11:40:54 11:44:21 27° 293° (WNW) 11:47:43 145.870
RS-15 24 May 11:41:27 11:52:13 57° 322° (NW) 12:03:23 29.354- 29.394
DUCHIFAT 1 24 May 11:41:28 11:45:24 35° 263° (W) 11:49:22 145.980
HO-68 24 May 11:42:52 11:48:28 25° 307° (NW) 11:53:53 435.675
UNISAT 6 24 May 11:45:11 11:48:34 19° 270° (W) 11:51:50 437.425
UWE-3 24 May 11:45:31 11:49:24 29° 294° (WNW) 11:53:08 435.000/436.395/437.385
AISAT 24 May 11:51:31 11:56:03 76° 104° (ESE) 12:00:32 437.250
CUSAT 1 24 May 11:52:59 11:57:31 18° 77° (ENE) 12:02:44 437.405
Cosmos 2504 24 May 11:55:31 12:03:20 42° 290° (WNW) 12:10:36 435.465 / 435.565
FUNcube-1 24 May 12:03:42 12:07:17 24° 295° (WNW) 12:10:44 145.935
SO-50 24 May 12:07:45 12:12:43 64° 49° (NE) 12:17:37 436.795
SPROUT 24 May 12:18:30 12:21:58 23° 92° (E) 12:25:29 437.525
BUGSAT 1 24 May 12:18:43 12:21:56 21° 268° (W) 12:25:07 437.445
QB50P1 24 May 12:23:28 12:25:54 14° 272° (W) 12:28:11 145.935-145.965
POLYITAN 1 24 May 12:23:51 12:26:16 14° 272° (W) 12:28:31 437.675
CUBEBUG 2 24 May 12:30:25 12:31:52 11° 304° (WNW) 12:33:07 437.445
Oscar 19 24 May 12:33:31 12:38:16 38° 67° (ENE) 12:43:05 437.125/150
DANDE 24 May 12:42:28 12:48:27 31° 84° (E) 12:55:29 436.750
ITAMSAT 1 24 May 12:43:05 12:46:16 17° 57° (ENE) 12:49:37 435.822/435.867
ZACube-1 24 May 12:44:43 12:46:12 11° 303° (WNW) 12:47:29 437.345
ESTCUBE 1 24 May 12:48:57 12:53:21 51° 289° (WNW) 12:57:44 437.505/2401.250
UKube-1 24 May 12:51:07 12:54:14 19° 298° (WNW) 12:57:14 .
TISAT 1 24 May 12:52:52 12:56:52 37° 97° (E) 13:00:51 437.305
DX 1 24 May 12:55:47 12:58:39 17° 299° (WNW) 13:01:22 434.975-435.025
VELOX 1 24 May 12:57:56 13:01:46 28° 295° (WNW) 13:05:32 145.980
HUMSAT D 24 May 13:01:45 13:03:55 14° 300° (WNW) 13:05:54 437.325/437.525
50 SAT 24 May 13:02:19 13:05:02 18° 296° (WNW) 13:07:39 437.505
Gurwin Techsat 1B 24 May 13:03:04 13:07:06 23° 61° (ENE) 13:11:15 435.225
CUBEBUG 1 24 May 13:04:12 13:08:23 40° 291° (WNW) 13:12:32 437.445
GONETS M04 24 May 13:16:14 13:24:41 54° 90° (E) 13:33:14
AO-7 24 May 13:28:10 13:33:40 21° 44° (NE) 13:39:26 29.400- 29.500
AISAT 24 May 13:29:26 13:32:06 15° 301° (WNW) 13:34:39 437.250
CUSAT 1 24 May 13:31:38 13:38:53 75° 98° (E) 13:47:14 437.405
JAS-2 24 May 13:33:53 13:36:08 12° 53° (NE) 13:38:35 435.910
SO-50 24 May 13:49:02 13:52:53 22° 247° (WSW) 13:56:36 436.795
SPROUT 24 May 13:54:08 13:58:13 40° 291° (WNW) 14:02:15 437.525
RS-15 24 May 13:57:44 14:07:35 34° 354° (N) 14:17:48 29.354- 29.394
ITUPSAT 1 24 May 13:59:14 14:03:29 31° 95° (E) 14:07:45 437.325
BEESAT 24 May 14:08:40 14:13:08 38° 97° (E) 14:17:35 436.000
Oscar 19 24 May 14:12:58 14:17:41 33° 265° (W) 14:22:22 437.125/150
SWISSCUBE 24 May 14:16:35 14:21:15 49° 100° (E) 14:25:53 437.505
ITAMSAT 1 24 May 14:20:00 14:25:11 84° 255° (WSW) 14:30:25 435.822/435.867
DANDE 24 May 14:23:55 14:31:03 69° 286° (WNW) 14:39:31 436.750
TISAT 1 24 May 14:28:57 14:32:30 25° 295° (WNW) 14:35:57 437.305
Cosmos 2499 24 May 14:39:56 14:46:56 35° 87° (E) 14:53:40 435.465 / 435.565
Gurwin Techsat 1B 24 May 14:41:27 14:46:42 61° 259° (W) 14:52:00 435.225
HORYU 2 24 May 14:51:31 14:55:35 35° 68° (ENE) 14:59:42 437.375
KKS-1 24 May 14:58:03 15:01:38 24° 92° (E) 15:05:18 437.445
GONETS M04 24 May 15:13:37 15:21:53 41° 293° (WNW) 15:30:05
JAS-2 24 May 15:13:50 15:20:23 60° 71° (ENE) 15:26:13 435.910
CUSAT 1 24 May 15:15:53 15:22:31 31° 301° (WNW) 15:29:36 437.405
AO-7 24 May 15:16:58 15:25:09 68° 66° (ENE) 15:33:26 29.400- 29.500
O/OREOS (USA 219) 24 May 15:22:51 15:25:26 16° 101° (E) 15:28:11 437.305
ITUPSAT 1 24 May 15:37:03 15:41:25 35° 293° (WNW) 15:45:44 437.325
BEESAT 24 May 15:46:44 15:50:52 29° 295° (WNW) 15:54:55 436.000
SWISSCUBE 24 May 15:55:01 15:58:50 24° 297° (WNW) 16:02:33 437.505
ITAMSAT 1 24 May 16:03:28 16:05:37 12° 276° (W) 16:07:30 435.822/435.867
STARS 24 May 16:08:31 16:13:00 74° 103° (ESE) 16:17:24 437.465
MOZHAYETS 4 24 May 16:08:40 16:10:16 12° 85° (E) 16:12:06
DANDE 24 May 16:10:46 16:16:13 20° 311° (NW) 16:21:49 436.750
RS-15 24 May 16:12:56 16:23:37 44° 27° (NNE) 16:34:50 29.354- 29.394
CUTE-I 24 May 16:16:19 16:18:16 12° 53° (NE) 16:20:25 437.470
HORYU 2 24 May 16:28:25 16:32:18 28° 265° (W) 16:36:10 437.375
Cosmos 2499 24 May 16:31:54 16:39:52 55° 286° (WNW) 16:47:15 435.465 / 435.565
KKS-1 24 May 16:34:13 16:38:28 41° 291° (WNW) 16:42:40 437.445
Cubesat XI-IV 24 May 16:34:31 16:37:46 17° 57° (ENE) 16:41:13 437.490
YUBILEINY 24 May 16:58:09 17:03:56 20° 53° (NE) 17:10:01 435.215
O/OREOS (USA 219) 24 May 16:59:54 17:04:24 66° 299° (WNW) 17:08:54 437.305
JAS-2 24 May 17:00:14 17:05:50 27° 267° (W) 17:10:50 435.910
AO-7 24 May 17:11:22 17:18:39 32° 267° (W) 17:25:47 29.400- 29.500
MOZHAYETS 4 24 May 17:43:38 17:48:13 84° 285° (WNW) 17:52:47
STARS 24 May 17:46:18 17:48:56 15° 301° (WNW) 17:51:24 437.465
CUTE-I 24 May 17:52:12 17:57:27 66° 72° (ENE) 18:02:45 437.470
BEESAT 2 24 May 17:56:31 17:57:40 11° 110° (ESE) 17:59:01 435.950
Cubesat XI-IV 24 May 18:11:56 18:17:15 87° 253° (WSW) 18:22:38 437.490
RS-15 24 May 18:25:52 18:37:27 86° 235° (SW) 18:49:33 29.354- 29.394
Cosmos 2499 24 May 18:31:47 18:35:04 12° 310° (NW) 18:37:51 435.465 / 435.565
PRISM 24 May 18:34:29 18:36:19 13° 88° (E) 18:38:20 437.425
HO-68 24 May 18:40:55 18:46:06 23° 52° (NE) 18:51:27 435.675
O/OREOS (USA 219) 24 May 18:42:58 18:44:48 12° 320° (NW) 18:46:28 437.305
BEESAT 3 24 May 18:46:06 18:49:56 40° 120° (ESE) 18:53:50 437.485
YUBILEINY 24 May 18:53:53 19:02:38 76° 78° (ENE) 19:11:21 435.215
Cosmos 2491 24 May 19:01:02 19:08:52 39° 86° (E) 19:16:52 435.465 / 435.565
AIST 2 24 May 19:05:52 19:08:42 18° 113° (ESE) 19:11:40 435.215
CANX-2 24 May 19:11:33 19:13:52 15° 61° (ENE) 19:16:20 2200.000
DOVE 4 24 May 19:11:46 19:15:14 19° 59° (ENE) 19:18:55 437.250
CUBESAT XI-V 24 May 19:14:56 19:19:39 74° 103° (ESE) 19:24:21 437.345
CUTE 1.7 + AOD 2 24 May 19:15:31 19:17:49 15° 61° (ENE) 19:20:17 437.475
BRITE-PL 24 May 19:19:00 19:23:45 42° 68° (ENE) 19:28:55 437.365/2234.400
MOZHAYETS 4 24 May 19:22:50 19:24:48 12° 302° (WNW) 19:26:34
BEESAT 2 24 May 19:31:01 19:35:09 88° 134° (SE) 19:39:20 435.950
STRAND 1 24 May 19:31:09 19:36:04 44° 98° (E) 19:41:00 437.568
CUTE-I 24 May 19:34:13 19:38:05 20° 271° (W) 19:41:49 437.470
GOMX 1 24 May 19:34:42 19:39:27 39° 67° (ENE) 19:44:29 467.674
SEEDS 24 May 19:41:12 19:44:21 21° 65° (ENE) 19:47:35 437.485
Cosmos 2504 24 May 19:50:49 19:55:48 20° 57° (ENE) 20:00:56 435.465 / 435.565
Cubesat XI-IV 24 May 19:55:42 19:58:16 13° 275° (W) 20:00:34 437.490
COMPASS 1 24 May 19:58:15 20:01:39 25° 66° (ENE) 20:05:07 437.405
PRISM 24 May 20:08:10 20:12:18 68° 287° (WNW) 20:16:25 437.425
AAUSAT CUBESAT 2 24 May 20:12:20 20:15:58 30° 68° (ENE) 20:19:37 437.432
CUBEBUG 2 24 May 20:17:30 20:20:48 19° 62° (ENE) 20:24:13 437.445
BEESAT 3 24 May 20:24:21 20:28:01 30° 320° (NW) 20:31:41 437.485
HO-68 24 May 20:25:48 20:33:00 87° 72° (ENE) 20:40:15 435.675
ZACube-1 24 May 20:30:44 20:33:34 17° 61° (ENE) 20:36:31 437.345
M-CUBED/EXP-1 PRIME 24 May 20:35:32 20:38:54 88° 290° (WNW) 20:42:12 437.505
RS-15 24 May 20:39:25 20:48:37 27° 256° (WSW) 20:57:35 29.354- 29.394
UKube-1 24 May 20:40:34 20:40:58 10° 56° (NE) 20:41:35 .
AIST 2 24 May 20:42:38 20:46:53 63° 311° (NW) 20:51:10 435.215
CINEMA 3 24 May 20:43:55 20:48:48 57° 71° (ENE) 20:53:45 145.822/145.860
DX 1 24 May 20:44:16 20:45:54 12° 57° (ENE) 20:47:42 434.975-435.025
CANX-2 24 May 20:45:03 20:49:19 70° 257° (WSW) 20:53:37 2200.000
AUBIESAT-1 24 May 20:46:07 20:49:29 76° 291° (WNW) 20:52:46 437.475
HUMSAT D 24 May 20:47:10 20:48:21 11° 58° (ENE) 20:49:44 437.325/437.525
DOVE 4 24 May 20:47:16 20:52:23 77° 257° (WSW) 20:57:44 437.250
Oscar 11 24 May 20:47:47 20:51:42 34° 68° (ENE) 20:55:39 145.826/435.025
CUTE 1.7 + AOD 2 24 May 20:49:01 20:53:16 70° 258° (WSW) 20:57:32 437.475
YUBILEINY 24 May 20:51:44 20:58:43 27° 279° (W) 21:05:25 435.215
CUBESAT XI-V 24 May 20:53:38 20:56:35 16° 300° (WNW) 20:59:23 437.345
DELFI C3 24 May 20:56:26 20:59:56 30° 68° (ENE) 21:03:29 145.870
Cosmos 2491 24 May 20:56:54 21:05:32 55° 288° (WNW) 21:14:11 435.465 / 435.565
BRITE-PL 24 May 20:57:53 21:02:25 31° 268° (W) 21:07:12 437.365/2234.400
AIST 1 24 May 21:02:29 21:06:41 63° 96° (E) 21:10:57
UWE-3 24 May 21:08:48 21:13:13 43° 70° (ENE) 21:17:40 435.000/436.395/437.385
STRAND 1 24 May 21:10:43 21:15:07 29° 296° (WNW) 21:19:27 437.568
BEESAT 2 24 May 21:10:50 21:13:49 19° 328° (NNW) 21:16:46 435.950
GOMX 1 24 May 21:12:58 21:17:38 34° 267° (W) 21:22:30 467.674
SEEDS 24 May 21:15:51 21:19:55 44° 262° (W) 21:23:58 437.485
AISAT 24 May 21:18:35 21:20:53 14° 59° (ENE) 21:23:21 437.250
FUNcube-1 24 May 21:25:33 21:29:58 49° 71° (ENE) 21:34:24 145.935
COMPASS 1 24 May 21:33:20 21:37:13 35° 264° (W) 21:41:04 437.405
Cosmos 2504 24 May 21:43:08 21:50:28 90° 275° (W) 21:57:40 435.465 / 435.565
AAUSAT CUBESAT 2 24 May 21:47:53 21:51:33 29° 265° (W) 21:55:12 437.432
CUBEBUG 2 24 May 21:52:19 21:57:03 63° 259° (W) 22:01:49 437.445
ZACube-1 24 May 22:04:51 22:09:28 71° 259° (W) 22:14:04 437.345
UKube-1 24 May 22:12:05 22:16:23 73° 73° (ENE) 22:20:44 .
50 SAT 24 May 22:14:35 22:18:23 43° 71° (ENE) 22:22:11 437.505
ESTCUBE 1 24 May 22:15:47 22:19:32 28° 66° (ENE) 22:23:24 437.505/2401.250
HO-68 24 May 22:16:34 22:21:46 20° 273° (W) 22:26:43 435.675
DX 1 24 May 22:17:08 22:21:30 87° 75° (ENE) 22:25:55 434.975-435.025
HUMSAT D 24 May 22:19:07 22:23:27 82° 75° (ENE) 22:27:47 437.325/437.525
VELOX 1 24 May 22:21:54 22:26:11 50° 70° (ENE) 22:30:31 145.980
CINEMA 3 24 May 22:22:32 22:26:22 21° 271° (W) 22:30:08 145.822/145.860
AIST 2 24 May 22:23:40 22:26:20 16° 333° (NNW) 22:28:54 435.215
Oscar 11 24 May 22:24:14 22:27:57 27° 267° (W) 22:31:38 145.826/435.025
CUSAT 1 24 May 22:25:51 22:30:57 19° 49° (NE) 22:35:45 437.405
CUBEBUG 1 24 May 22:27:41 22:31:29 31° 67° (ENE) 22:35:22 437.445
DOVE 4 24 May 22:29:24 22:31:11 11° 279° (W) 22:32:40 437.250
DELFI C3 24 May 22:31:34 22:35:03 27° 266° (W) 22:38:30 145.870
ANTELSAT 24 May 22:39:22 22:42:52 23° 92° (E) 22:46:23 437.575/2403.000
AIST 1 24 May 22:42:22 22:44:53 15° 297° (WNW) 22:47:15
UWE-3 24 May 22:46:02 22:49:56 25° 268° (W) 22:53:44 435.000/436.395/437.385
AISAT 24 May 22:52:27 22:56:55 80° 256° (WSW) 23:01:25 437.250
NANOSAT C BR1 24 May 23:00:16 23:03:07 18° 90° (E) 23:06:04 145.865
Cosmos 2491 24 May 23:00:31 23:05:04 14° 315° (NW) 23:09:10 435.465 / 435.565
FUNcube-1 24 May 23:03:01 23:06:34 21° 269° (W) 23:10:01 145.935
QB50P2 24 May 23:06:12 23:09:25 21° 91° (E) 23:12:43 145.880/145.840
TIGRISAT 24 May 23:12:52 23:17:10 47° 98° (E) 23:21:22 435.000
SPROUT 24 May 23:15:56 23:19:37 28° 66° (ENE) 23:23:22 437.525
POPSAT HIP 1 24 May 23:18:48 23:22:27 27° 94° (E) 23:26:08 437.405
DANDE 24 May 23:19:49 23:27:09 34° 60° (ENE) 23:33:34 436.750
GONETS M04 24 May 23:22:09 23:29:49 33° 63° (ENE) 23:37:34
DUCHIFAT 1 24 May 23:22:41 23:26:24 28° 94° (E) 23:30:08 145.980
UNISAT 6 24 May 23:32:09 23:36:38 77° 103° (ESE) 23:40:58 437.425
Cosmos 2504 24 May 23:38:15 23:42:52 18° 282° (WNW) 23:47:08 435.465 / 435.565
BEESAT 24 May 23:45:16 23:46:01 10° 54° (NE) 23:47:00 436.000
TISAT 1 24 May 23:48:08 23:52:10 43° 70° (ENE) 23:56:15 437.305
50 SAT 24 May 23:50:24 23:53:19 19° 269° (W) 23:56:08 437.505
O/OREOS (USA 219) 24 May 23:50:37 23:51:07 10° 37° (NE) 23:51:48 437.305
UKube-1 24 May 23:50:59 23:53:06 13° 273° (W) 23:55:02 .
SWISSCUBE 24 May 23:51:56 23:53:59 13° 57° (ENE) 23:56:14 437.505
ESTCUBE 1 24 May 23:52:10 23:56:19 36° 264° (W) 00:00:28 437.505/2401.250
BUGSAT 1 24 May 23:56:17 00:00:25 44° 98° (E) 00:04:31 437.445
DX 1 24 May 23:57:15 23:58:29 11° 274° (W) 23:59:29 434.975-435.025
HUMSAT D 24 May 23:58:17 23:59:51 11° 275° (W) 00:01:11 437.325/437.525
VELOX 1 24 May 23:59:47 00:03:04 19° 270° (W) 00:06:15 145.980
QB50P1 25 May 00:02:44 00:07:03 76° 103° (ESE) 00:11:20 145.935-145.965
POLYITAN 1 25 May 00:03:24 00:07:44 78° 103° (ESE) 00:12:00 437.675
CUBEBUG 1 25 May 00:03:56 00:07:50 31° 265° (W) 00:11:44 437.445
CUSAT 1 25 May 00:07:35 00:15:26 74° 75° (ENE) 00:21:39 437.405
ANTELSAT 25 May 00:15:40 00:19:52 40° 291° (WNW) 00:23:55 437.575/2403.000
Cosmos 2499 25 May 00:27:30 00:30:39 14° 51° (NE) 00:34:09 435.465 / 435.565
NANOSAT C BR1 25 May 00:35:06 00:39:18 51° 289° (WNW) 00:43:26 145.865
QB50P2 25 May 00:41:27 00:45:33 43° 290° (WNW) 00:49:36 145.880/145.840
TIGRISAT 25 May 00:50:14 00:53:38 21° 297° (WNW) 00:56:53 435.000
SPROUT 25 May 00:51:41 00:55:37 33° 264° (W) 00:59:34 437.525
POPSAT HIP 1 25 May 00:54:28 00:58:23 34° 292° (WNW) 01:02:14 437.405
DUCHIFAT 1 25 May 00:58:24 01:02:14 32° 293° (WNW) 01:06:00 145.980
DANDE 25 May 01:02:55 01:11:07 65° 265° (W) 01:17:48 436.750
ISS 25 May 01:05:20 01:08:27 46° 148° (SSE) 01:11:37 145.825
ITUPSAT 1 25 May 01:09:15 01:13:52 53° 70° (ENE) 01:18:31 437.325
UNISAT 6 25 May 01:10:23 01:12:51 14° 301° (WNW) 01:15:09 437.425
BEESAT 25 May 01:18:20 01:23:03 65° 72° (ENE) 01:27:47 436.000
GONETS M04 25 May 01:18:44 01:27:28 67° 266° (W) 01:36:04
BEESAT 3 25 May 01:24:19 01:26:56 16° 30° (NNE) 01:29:35 437.485
TISAT 1 25 May 01:24:55 01:28:11 21° 269° (W) 01:31:21 437.305
SWISSCUBE 25 May 01:26:25 01:31:10 83° 72° (ENE) 01:35:57 437.505
O/OREOS (USA 219) 25 May 01:27:17 01:31:41 54° 60° (ENE) 01:36:04 437.305
BUGSAT 1 25 May 01:32:19 01:35:38 22° 296° (WNW) 01:38:51 437.445
STARS 25 May 01:34:51 01:37:04 14° 59° (ENE) 01:39:27 437.465
QB50P1 25 May 01:40:04 01:42:23 14° 300° (WNW) 01:44:34 145.935-145.965
POLYITAN 1 25 May 01:40:49 01:43:05 14° 301° (WNW) 01:45:12 437.675
PCSat 25 May 01:41:17 01:46:36 61° 119° (ESE) 01:51:58 145.827
AIST 2 25 May 01:45:45 01:47:14 12° 20° (NNE) 01:48:47 435.215
CUSAT 1 25 May 01:51:20 01:57:14 25° 279° (W) 02:02:06 437.405
KKS-1 25 May 01:59:20 02:03:20 33° 67° (ENE) 02:07:24 437.445
BEESAT 2 25 May 02:09:36 02:13:06 26° 38° (NE) 02:16:37 435.950
Cosmos 2499 25 May 02:18:34 02:25:38 65° 76° (ENE) 02:32:41 435.465 / 435.565
Oscar 19 25 May 02:20:18 02:25:29 68° 102° (ESE) 02:30:37 437.125/150
ITAMSAT 1 25 May 02:29:46 02:34:08 27° 93° (E) 02:38:34 435.822/435.867
ISS 25 May 02:41:42 02:44:53 50° 347° (NNW) 02:48:06 145.825
ITUPSAT 1 25 May 02:48:30 02:52:07 21° 269° (W) 02:55:37 437.325
DANDE 25 May 02:48:41 02:52:40 14° 286° (WNW) 02:55:57 436.750
Gurwin Techsat 1B 25 May 02:54:09 02:59:10 41° 97° (E) 03:04:12 435.225
BEESAT 25 May 02:58:16 03:01:24 17° 271° (W) 03:04:23 436.000
BEESAT 3 25 May 03:01:30 03:05:38 76° 52° (NE) 03:09:40 437.485
SWISSCUBE 25 May 03:07:27 03:09:45 13° 274° (W) 03:11:49 437.505
O/OREOS (USA 219) 25 May 03:07:35 03:10:45 19° 258° (WSW) 03:13:47 437.305
STARS 25 May 03:08:30 03:12:57 83° 256° (WSW) 03:17:26 437.465
MOZHAYETS 4 25 May 03:13:28 03:16:32 18° 62° (ENE) 03:19:43
AO-7 25 May 03:16:22 03:21:02 16° 84° (E) 03:26:12 29.400- 29.500
GONETS M04 25 May 03:18:09 03:22:44 15° 287° (WNW) 03:26:46
AIST 2 25 May 03:23:02 03:27:01 37° 43° (NE) 03:30:57 435.215
PCSat 25 May 03:25:39 03:30:25 30° 320° (NW) 03:35:10 145.827
